Skip Page Navigation
NASA JPL Caltech
NASA Logo - Jet Propulsion Laboratory + View the NASA Portal
+ Center for Near-Earth Object Studies
JPL Home Earth Solar System Stars & Galaxies Technology
JPL Solar System Dynamics
BODIES ORBITS EPHEMERIDES TOOLS PHYSICAL DATA DISCOVERY FAQ SITE MAP
JPL Small-Body Database Browser
Search: [ help ]  
385802 (2006 DO11)
Classification: Main-belt Asteroid          SPK-ID: 2385802
Ephemeris | Orbit Diagram | Orbital Elements | Mission Design | Physical Parameters | Discovery Circumstances | Close-Approach Data ]

[ show orbit diagram ]
Orbital Elements at Epoch 2459200.5 (2020-Dec-17.0) TDB
Reference: JPL 18 (heliocentric ecliptic J2000)
 Element Value Uncertainty (1-sigma)   Units 
e .121337801557167 3.0094e-07  
a 2.529184525216541 2.192e-08 au
q 2.222298835194359 7.6873e-07 au
i 14.95088794107348 8.5365e-06 deg
node 127.0840701497103 3.8335e-05 deg
peri 6.632470174066022 0.00013167 deg
M 268.6145882841607 0.00011741 deg
tp 2459573.443955564482
(2021-Dec-24.94395556)
0.00047805 TDB
period 1469.160355929579
4.02
1.9099e-05
5.229e-08
d
yr
n .2450379215223364 3.1856e-09 deg/d
Q 2.836070215238724 2.458e-08 au
  Orbit Determination Parameters
   # obs. used (total)      270  
   data-arc span      7408 days (20.28 yr)  
   first obs. used      2000-09-26  
   last obs. used      2021-01-07  
   planetary ephem.      DE441  
   SB-pert. ephem.      SB441-N16  
   condition code      0  
   norm. resid. RMS      .60416  
   source      ORB  
   producer      Otto Matic  
   solution date      2021-Apr-14 11:06:40  

Additional Information
 Earth MOID = 1.23736 au 
 Jupiter MOID = 2.2147 au 
 T_jup = 3.395 
[ show covariance matrix ]

Ephemeris | Orbit Diagram | Orbital Elements | Mission Design | Physical Parameters | Discovery Circumstances | Close-Approach Data ]

Physical Parameter Table
Parameter Symbol Value Units Sigma Reference Notes
absolute magnitude H 16.63   n/a MPCxxxxx  

385802 (2006 DO11)          Discovered 2006-Feb-21 by CSS at Catalina
Reference: Last Updated: 2014-02-19

[ show close-approach data ]
Ephemeris | Orbit Diagram | Orbital Elements | Mission Design | Physical Parameters | Discovery Circumstances | Close-Approach Data ]
ABOUT SSD CREDITS/AWARDS PRIVACY/COPYRIGHT GLOSSARY LINKS
FirstGov 2021-Jun-14 11:15 UT
(server date/time)  
NASA Home Page
Site Manager:   Ryan S. Park
Webmaster  Alan B. Chamberlin